STARLINK-5115 (53989 NORAD) Tracking and Keplerian Element Data

This shows tracking and keplerian element data for the satellite.

Feedback or suggestion? Click here.




ElementValue
Catalog53989
NameSTARLINK-5115
Epoch Orbit760
Epoch Day324.91667824
Epoch Year2022
RAAN225.4954
Inclination53.2149
Eccentricity0.0001768
Argument of Perigee54.5667
Mean Anonmoly206.8112
Mean Motion15.49915746
Decay Rate-0.00014368
L11 53989U 22125AB 22324.91667824 -.00014368 00000+0 -24537-3 0 9999
L22 53989 53.2149 225.4954 0001768 54.5667 206.8112 15.49915746 7600



Live tracking and technical data element details for STARLINK-5115 (NORAD 53989). STARLINK-5115 can be tracked NOW for your location showing map with azimuth and elevation plus other details from your city location.







IsCatalogInMostPopularTable: catalog: 53989, numindb: 3
Update: records affected: 1



GetName: 53989 STARLINK-5115

Hit Count: updated at: Mon, 28 Nov 2022 21:49:16 GMT